#timestamp,LO_Frequency,Hit,StdDev 
1617278415.1,286046999.8,N
1617278416.0,286046999.8,N
1617278435.8,286046999.7,N
1617278455.6,286047002.8,N
1617278475.5,286047002.0,N
1617278495.3,286047002.3,N
1617278515.1,286047002.6,N
1617278535.9,286046999.7,N
1617278555.7,286047002.3,N
1617278575.6,286047000.1,N
1617278595.4,286047002.8,N
1617278615.2,286047002.5,N
1617278635.1,286047002.4,N
1617278636.0,286047002.4,N
1617278655.8,286046999.8,N
1617278675.7,286046999.8,N
1617278695.5,286047002.5,N
1617278715.3,286047002.5,N
1617278735.2,286047002.5,N
1617278755.0,286047002.2,N
1617278755.9,286047002.2,N
1617278775.7,286047002.2,N
1617278795.6,286047002.5,N
1617278815.4,286047002.7,N
1617278835.3,286047002.5,N
1617278855.1,286047002.1,N
1617278856.0,286047002.1,N
1617278875.8,286047002.1,N
1617278895.7,286047002.0,N
1617278915.5,286047002.2,N
1617278935.4,286047002.2,N
1617278955.2,286047001.9,N
1617278975.0,286047002.4,N
1617278975.9,286047002.4,N
1617278995.8,286047001.5,N
1617279015.6,286047002.5,N
1617279035.5,286047001.8,N
1617279055.3,286047002.0,N
1617279075.1,286047002.1,N
1617279095.9,286047001.7,N
1617279115.7,286047001.6,N
1617279135.5,286047002.0,N
1617279155.4,286047002.5,Y
1617279175.2,286047001.2,P
1617279195.1,286047000.8,N
1617279196.0,286047000.8,N
1617279215.8,286047001.1,N
1617279235.6,286046998.7,N
1617279255.5,286046998.5,N
1617279275.3,286046998.5,N
1617279295.2,286046998.6,N
1617279315.9,286046998.1,N
1617279335.7,286046998.5,N
1617279355.6,286046998.9,N
1617279375.4,286046999.1,N
1617279395.2,286046999.1,N
1617279415.1,286046998.7,N
1617279416.0,286046998.7,N
1617279435.8,286046999.5,N
1617279455.7,286046999.2,N
1617279475.5,286046998.7,N
1617279495.3,286046998.7,N
1617279515.2,286046998.4,N
1617279535.0,286046998.5,N
1617279535.9,286046998.5,N
1617279555.8,286046998.4,N
1617279575.6,286046999.0,N
1617279595.4,286046999.2,N
1617279615.3,286046999.5,N
1617279635.1,286046999.0,N
1617279655.8,286046999.2,N
1617279675.7,286046996.6,Y
1617279695.5,286047000.5,P
1617279715.4,286047001.0,N
1617279735.2,286047001.2,N
1617279755.0,286046998.7,N
1617279755.9,286046998.7,N
1617279775.8,286047001.1,N
1617279795.6,286047000.6,N
1617279815.4,286047001.1,N
1617279835.3,286047001.1,N
1617279855.1,286047000.6,N
1617279875.9,286046998.5,N
1617279895.7,286047000.3,N
1617279915.5,286047000.5,N
1617279935.4,286047002.8,N
1617279955.2,286046999.7,N
1617279975.0,286047002.5,N
1617279976.0,286047002.5,N
1617279995.8,286047002.5,N
1617280015.6,286047002.7,N
1617280035.5,286046999.7,N
1617280055.3,286046999.8,N
1617280075.1,286047002.1,N
1617280095.9,286047002.2,N
1617280115.7,286047002.2,N
1617280135.6,286047002.7,N
1617280155.4,286047002.8,N
1617280175.2,286047002.0,N
1617280195.1,286047002.1,N
1617280196.0,286047002.1,N
1617280215.8,286047002.6,N
1617280235.6,286047002.5,N
1617280255.5,286047001.9,N
1617280275.3,286047001.9,N
1617280295.2,286047001.6,N
1617280315.9,286047001.5,N
1617280335.7,286047001.6,N
1617280355.6,286047001.4,N
1617280375.4,286047001.3,N
1617280395.2,286047001.3,N
1617280415.1,286047004.2,Y
1617280416.0,286047004.2,P
1617280435.8,286047000.2,N
1617280455.7,286047002.8,N
1617280475.5,286047002.4,N
1617280495.3,286047002.6,N
1617280515.2,286047002.7,N
1617280535.0,286047002.3,N
1617280535.9,286047002.3,N
1617280555.8,286047001.9,N
1617280575.6,286047002.1,N
1617280595.4,286047002.1,N
1617280615.3,286047001.9,N
1617280635.1,286047002.6,Y
1617280655.8,286047000.6,P
1617280675.7,286047000.7,N
1617280695.5,286047000.9,N
1617280715.4,286047000.6,N
1617280735.2,286047000.4,N
1617280755.0,286047000.4,N
1617280786.0,286047000.3,E
1617280795.9,286047000.4,N
1617280815.7,286047000.8,P
1617280835.6,286047000.7,P
1617280855.4,286047001.0,Y
1617280875.2,286046998.5,P
1617280895.1,286046998.3,N
1617280896.0,286046998.3,N
1617280915.8,286046998.5,N
1617280935.7,286047001.1,N
1617280955.5,286047001.0,N
1617280975.3,286047001.1,N
1617280995.2,286047000.8,N
1617281015.0,286047000.5,N
1617281015.9,286047000.5,N
1617281035.8,286047000.4,N
1617281055.6,286047000.0,N
1617281075.4,286047000.1,N
1617281095.3,286047002.4,N
1617281115.1,286046999.9,N
1617281135.8,286046999.9,N
1617281155.7,286047000.4,N
1617281175.5,286046998.1,N
1617281195.4,286047000.6,N
1617281215.2,286046998.5,N
1617281235.0,286047001.1,N
1617281235.9,286047001.1,N
1617281255.8,286046998.1,N
1617281275.6,286046998.2,N
1617281295.4,286047001.0,N
1617281315.3,286047001.1,N
1617281335.1,286047000.3,N
1617281355.9,286047000.1,N
1617281375.7,286047000.4,N
1617281395.5,286047000.2,N
1617281415.4,286047000.4,N
1617281435.2,286046999.7,N
1617281455.1,286047000.4,N
1617281456.0,286047000.4,N
1617281475.8,286047000.1,N
1617281495.6,286046999.9,N
1617281515.5,286046999.7,N
1617281535.3,286047000.1,N
1617281555.1,286047000.5,N
1617281575.9,286046999.7,N
1617281595.7,286046999.8,N
1617281615.6,286047002.3,N
1617281635.4,286047002.5,N
1617281655.2,286046999.8,N
1617281675.1,286046999.9,N
1617281676.0,286046999.9,N
1617281695.8,286047002.6,N
1617281715.7,286047002.5,N
1617281735.5,286047000.1,N
1617281755.3,286047000.1,N
1617281775.2,286047002.6,N
1617281795.0,286047002.7,N
1617281795.9,286047002.7,N
1617281815.7,286047002.5,N
1617281835.6,286047002.4,N
1617281855.4,286046999.8,N
1617281875.3,286047002.8,N
1617281895.1,286047002.7,N
1617281896.0,286047002.7,N
1617281915.8,286047002.5,N
1617281935.7,286047002.3,N
1617281955.5,286046999.7,N
1617281975.4,286047002.3,N
1617281995.2,286047002.1,N
